This is the latest recevied weather packets stored in our database for station/object KE0FIN. If no packets are shown the sender has not sent any weather packets the latest 10 day(s).
| Time | Temp. | Humidity | Pressure | Rain* | Wind** | Luminosity | Snow |
|---|---|---|---|---|---|---|---|
| 1777831716 | 28.33° C | 23% | 1063.5 hPa | 0 mm | - | 57 W/m² | - |
| 1777831414 | 28.89° C | 23% | 1063.6 hPa | 0 mm | - | 87 W/m² | - |
| 1777831110 | 28.33° C | 24% | 1063.8 hPa | 0 mm | - | 48 W/m² | - |
| 1777830808 | 28.33° C | 24% | 1063.8 hPa | 0 mm | - | 70 W/m² | - |
| 1777830503 | 28.33° C | 23% | 1064 hPa | 0 mm | - | 115 W/m² | - |
| 1777830202 | 27.78° C | 26% | 1064.3 hPa | 0 mm | - | 57 W/m² | - |
| 1777829897 | 27.78° C | 27% | 1064.1 hPa | 0 mm | - | 55 W/m² | - |
| 1777829593 | 27.78° C | 27% | 1064.3 hPa | 0 mm | - | 44 W/m² | - |
| 1777829290 | 27.22° C | 28% | 1064.5 hPa | 0 mm | - | 55 W/m² | - |
| 1777828988 | 27.22° C | 30% | 1064.6 hPa | 0 mm | - | 40 W/m² | - |
| 1777828683 | 26.67° C | 30% | 1064.6 hPa | 0 mm | - | 42 W/m² | - |
| 1777828381 | 26.67° C | 30% | 1064.7 hPa | 0 mm | - | 40 W/m² | - |
| 1777828078 | 26.67° C | 31% | 1064.7 hPa | 0 mm | - | 39 W/m² | - |
| 1777827774 | 26.11° C | 33% | 1064.7 hPa | 0 mm | - | 39 W/m² | - |
| 1777827471 | 25.56° C | 33% | 1064.8 hPa | 0 mm | - | 39 W/m² | - |
| 1777827169 | 25° C | 33% | 1065.1 hPa | 0 mm | - | 39 W/m² | - |
| 1777826864 | 25° C | 35% | 1065 hPa | 0 mm | - | 39 W/m² | - |
| 1777826563 | 25° C | 36% | 1065.2 hPa | 0 mm | - | 38 W/m² | - |
| 1777826258 | 24.44° C | 35% | 1065.2 hPa | 0 mm | - | 38 W/m² | - |
| 1777825957 | 23.89° C | 35% | 1065.1 hPa | 0 mm | - | 42 W/m² | - |
| 1777825653 | 23.89° C | 39% | 1065.2 hPa | 0 mm | - | 348 W/m² | - |
| 1777825351 | 23.33° C | 39% | 1065.4 hPa | 0 mm | - | 40 W/m² | - |
| 1777825047 | 22.78° C | 41% | 1065.2 hPa | 0 mm | - | 57 W/m² | - |
| 1777824743 | 22.78° C | 41% | 1065.3 hPa | 0 mm | - | 43 W/m² | - |
| 1777824441 | 22.22° C | 40% | 1065.3 hPa | 0 mm | - | 36 W/m² | - |
* Rain latest hour (hover to see other rain measurements)
** Current wind speed in m/s (hover to see current wind gust speed)